SCP
0 0 0 0 0 0 -0 -0 0 0 0 0 0 0 0 0 0 0 0 0 0 0 0 0 0 0 0 0 0 0 0 0 0 0 0 0 0 0 0 0 0 0 0 0 0 1 1 1 1
0 0 0 0 0 0 0 0 0 0 0 0 0 0 0 0 0 0 0 0 0 0 0 0 0 0 0 0 0 0 0 0 0 0 0 0 0 0 0 0 0 0 0 0 0 0 1 1 1
0 0 0 0 0 0 0 0 0 0 0 0 0 0 0 0 0 0 0 0 0 0 0 0 0 0 0 0 0 0 0 0 0 0 0 0 0 0 0 0 0 0 0 0 0 0 0 1 1
0 0 0 0 0 0 0 0 0 0 0 0 0 0 0 0 0 0 0 0 0 0 0 0 0 0 0 0 0 0 0 0 0 0 0 0 0 0 0 0 0 0 0 0 0 0 0 0 0
0 0 0 0 0 0 0 0 0 0 0 0 0 0 0 0 0 0 0 0 0 0 0 0 0 0 0 0 0 0 0 0 0 0 0 0 0 0 0 0 0 0 0 0 0 0 0 0 0
0 0 0 0 0 0 0 0 0 0 0 0 0 0 0 0 0 0 0 0 0 0 0 0 0 0 0 0 0 0 1 1 1 0 0 0 0 0 0 0 0 0 0 0 0 0 0 0 0
0 0 0 0 0 0 0 0 0 0 0 0 0 0 0 0 0 0 0 0 0 0 0 0 0 0 0 0 0 0 0 1 0 0 0 0 0 0 0 0 0 0 0 0 0 0 0 0 0
0 0 0 0 0 0 0 0 0 0 0 0 0 0 0 0 0 0 0 0 0 0 0 0 0 0 0 0 0 0 0 0 0 0 0 0 0 0 0 0 0 0 0 0 0 0 0 0 0
0 0 0 0 0 0 0 0 0 0 0 0 0 0 0 0 0 0 0 0 0 0 0 0 0 0 0 0 0 0 0 0 0 0 0 0 0 0 0 0 0 0 0 0 0 0 0 0 0
0 0 0 0 0 0 0 0 0 0 0 0 0 0 0 0 0 0 0 0 0 0 0 0 0 0 0 0 0 0 0 0 0 0 0 0 0 0 0 0 0 0 0 0 0 0 0 0 0
0 0 0 0 0 0 0 0 0 0 0 0 0 0 0 0 0 0 0 0 0 0 0 0 0 0 0 0 0 0 0 0 0 0 0 0 0 0 0 0 0 0 0 0 0 0 0 0 0
0 0 0 0 0 0 0 0 0 0 0 0 0 0 0 0 0 0 0 0 0 0 0 0 0 0 0 0 0 0 0 0 0 0 0 0 0 0 0 0 0 0 0 0 0 0 0 0 0
0 0 0 0 0 0 0 0 0 0 0 0 0 0 0 0 0 0 0 0 0 0 0 0 0 0 0 0 0 0 0 0 0 0 0 0 0 0 0 0 0 0 0 0 0 0 0 0 0
0 0 0 0 0 0 0 0 0 0 0 0 0 0 0 0 0 0 0 0 0 1 1 1 0 0 0 0 0 0 0 0 0 0 0 0 0 0 0 0 0 0 0 0 0 0 0 0 0
0 0 0 0 0 0 0 0 0 0 0 0 0 0 1 1 1 0 0 0 0 1 1 1 1 1 0 0 0 0 0 0 0 0 0 0 0 0 0 0 0 0 0 0 0 0 0 0 0
0 0 0 0 0 0 0 0 0 0 0 0 0 0 1 1 1 1 0 0 0 1 1 1 1 1 1 0 0 0 0 0 0 0 0 0 0 0 0 0 0 0 0 0 0 0 0 0 0
0 0 0 0 0 0 0 0 0 0 0 0 0 0 0 1 1 1 1 0 0 1 1 1 1 1 1 0 0 0 0 0 0 0 0 0 0 0 0 0 0 0 0 0 0 0 0 0 0
0 0 0 0 0 0 0 0 0 0 0 0 0 0 0 0 1 1 1 1 0 1 1 1 1 1 1 0 0 0 0 0 0 0 0 0 0 0 0 0 0 0 0 0 0 0 0 0 0
0 0 0 0 0 0 0 0 0 0 0 0 0 0 0 0 0 0 0 0 0 1 1 1 1 1 1 1 0 0 0 0 0 0 0 0 0 0 0 0 0 0 0 0 0 0 0 0 0
0 0 0 0 0 0 0 0 0 0 0 0 0 0 0 0 0 0 0 0 0 0 1 1 1 1 1 1 1 0 0 0 0 0 0 0 0 0 0 0 0 0 0 0 0 0 0 0 0
0 0 0 0 0 0 0 0 0 0 0 0 0 0 0 0 0 0 0 0 0 0 0 1 1 1 1 1 0 0 0 0 0 0 0 0 0 0 0 0 0 0 0 0 0 0 0 0 0
0 0 0 0 0 0 0 0 0 0 0 0 0 0 0 0 0 0 0 0 0 0 0 0 0 1 1 0 0 0 0 0 0 0 0 0 0 0 0 0 0 0 0 0 0 0 0 0 0
0 0 0 0 0 0 0 0 0 0 0 0 0 0 0 0 0 0 0 0 0 0 0 0 0 0 0 0 0 0 0 0 0 0 0 0 0 0 0 0 0 0 0 0 0 0 0 0 0
0 0 0 0 0 0 0 0 0 0 0 0 0 0 0 0 0 0 0 0 0 0 0 0 0 0 0 0 0 0 0 0 0 0 0 0 0 0 0 0 0 0 0 0 0 0 0 0 0
0 0 0 0 0 0 0 0 0 0 0 0 0 0 0 0 0 0 0 0 0 0 0 0 0 0 0 0 0 0 0 0 0 0 0 0 0 0 0 0 0 0 0 0 0 0 0 0 0
0 0 0 0 0 0 0 0 0 0 0 0 0 0 0 0 0 0 0 0 0 0 0 0 0 0 0 0 0 0 0 0 0 0 0 0 0 0 0 0 0 0 0 0 0 0 0 0 0
0 0 0 0 0 0 0 0 0 0 0 0 0 0 0 0 0 0 0 0 0 1 1 0 0 0 0 0 0 0 0 0 0 0 0 0 0 0 0 0 0 0 0 0 0 0 0 0 0
0 0 0 0 0 0 0 0 0 0 0 0 0 0 0 0 0 0 0 0 0 1 1 1 0 0 0 0 0 0 0 0 0 0 0 0 0 0 0 0 0 0 0 0 0 0 0 0 0
0 0 0 0 0 0 0 0 0 0 0 0 0 0 0 0 0 0 0 0 0 1 1 1 0 0 0 0 0 0 0 0 0 0 0 0 0 0 0 0 0 0 0 0 0 0 0 0 0
0 0 0 0 0 0 0 0 0 0 0 0 0 0 0 0 0 0 0 0 0 1 1 1 0 0 0 0 0 0 0 0 0 0 0 0 0 0 0 0 0 0 0 0 0 0 0 0 0
Wind_Speed
4 2 2 3 6 6 1 2 1 1 1 2 3 6 6 4 1 1 1 6 7 8 6 8 10 9 9 8 8 9 10 11 11 11 11 10 10 10 11 11 11 11 11 10 9 9 10 9 10
1 1 3 5 7 3 3 3 1 1 3 4 4 4 4 2 2 4 3 5 8 8 6 7 10 9 9 9 9 9 10 11 11 11 11 11 10 11 11 11 11 11 10 10 9 9 9 9 11
1 2 3 5 4 3 2 2 2 2 3 2 3 4 3 2 4 4 4 9 8 6 5 6 10 9 9 9 9 10 10 11 11 11 11 11 11 11 11 11 10 10 10 10 9 9 9 10 11
3 4 5 5 2 3 3 3 3 5 2 3 4 3 2 1 5 5 8 9 8 6 5 6 10 10 9 9 10 10 10 11 11 11 11 10 10 10 10 10 10 9 9 9 9 8 8 9 10
4 4 5 3 2 3 3 3 4 5 4 3 4 3 1 2 5 9 9 8 8 6 5 6 10 10 10 10 10 10 10 11 11 11 11 10 10 10 9 9 9 9 9 9 9 8 7 7 9
4 4 5 1 2 5 4 2 2 3 4 4 5 4 1 2 7 8 8 7 7 7 6 5 11 11 10 11 11 11 11 11 11 11 11 10 9 9 9 9 8 8 9 9 9 8 7 7 11
4 4 4 3 1 3 3 1 2 4 4 5 6 5 1 3 6 7 6 6 6 6 5 4 5 7 10 11 11 11 11 11 10 10 10 9 9 9 9 8 8 8 9 10 9 9 9 10 11
4 4 3 2 1 2 3 1 1 5 3 4 5 7 5 6 7 6 6 5 5 5 5 5 5 5 5 6 10 11 11 11 10 10 10 9 9 8 8 7 7 8 10 10 10 10 11 12 11
3 5 2 4 4 3 2 1 1 3 5 3 4 5 5 9 10 7 4 3 4 5 4 5 5 5 5 5 8 9 10 10 9 8 9 8 3 3 4 6 7 9 10 11 11 12 11 12 11
4 3 5 4 5 3 2 1 1 3 3 2 1 1 6 11 11 9 7 7 7 6 5 4 5 5 5 5 4 3 3 4 4 3 4 4 3 2 3 3 6 8 10 10 12 12 11 8 5
2 4 3 2 2 2 1 1 2 5 3 5 7 7 10 10 10 10 10 8 8 6 6 6 5 5 5 3 3 2 2 3 4 4 5 4 3 2 2 2 2 4 7 5 7 7 5 5 4
1 3 3 2 1 2 2 1 2 4 7 8 9 11 13 14 14 15 14 10 7 6 7 7 7 5 5 4 3 3 3 3 3 4 5 4 2 2 1 1 2 3 3 3 3 3 5 5 5
2 3 2 4 4 3 2 2 2 4 6 3 7 10 14 16 14 13 10 8 8 9 10 9 9 7 6 5 4 4 3 3 4 4 4 4 3 2 1 1 2 2 3 3 3 3 5 5 5
2 3 3 4 3 3 4 2 1 6 2 4 8 11 13 15 14 10 9 10 10 11 11 10 10 10 9 6 5 5 4 4 4 4 5 5 3 3 2 2 1 2 2 2 3 4 5 4 4
2 3 4 3 2 2 3 3 5 5 2 4 7 9 11 12 11 12 13 11 9 9 10 10 11 10 9 8 7 5 5 5 5 4 5 5 4 4 3 3 2 2 2 3 4 5 5 5 4
3 2 2 4 2 1 4 6 9 2 1 5 6 7 8 10 10 11 9 8 7 8 10 12 11 10 10 8 6 4 5 5 5 4 4 6 6 5 4 3 3 3 3 3 4 4 4 4 4
4 1 1 4 3 1 2 6 9 3 2 5 5 6 8 7 7 7 7 8 9 11 12 13 12 11 11 8 6 5 4 5 4 4 4 5 6 6 5 4 3 4 3 3 4 3 4 4 4
2 2 3 4 4 2 3 7 10 6 4 6 6 6 6 6 5 2 3 5 7 9 11 13 11 10 9 6 4 3 3 3 3 4 5 6 5 6 6 4 4 5 4 4 4 4 3 4 5
1 2 5 6 5 4 6 8 11 7 3 5 5 6 6 4 1 2 2 1 2 4 7 9 9 8 7 5 5 4 4 3 3 3 5 6 6 7 6 5 5 5 5 6 6 4 5 3 3
2 2 4 7 6 4 6 9 8 5 5 6 7 7 7 4 1 1 2 1 1 2 5 6 7 7 7 5 4 3 3 2 3 3 4 6 7 7 7 6 6 6 5 6 6 5 4 3 3
3 3 4 7 8 5 4 7 6 5 3 3 3 5 6 6 5 3 1 1 1 2 4 5 5 6 5 5 3 3 2 2 2 2 3 5 7 8 7 7 5 5 6 8 8 7 7 5 3
4 7 7 8 5 5 2 6 8 6 5 3 3 5 6 5 4 4 3 3 3 3 2 3 4 5 5 6 5 6 5 4 4 3 3 4 6 8 8 8 7 6 5 7 9 7 5 7 5
6 4 5 6 5 4 3 3 9 4 5 5 5 5 6 6 6 5 5 4 3 2 3 3 4 5 5 6 7 6 4 3 2 3 5 4 5 6 7 7 6 5 4 5 6 7 5 5 5
4 1 3 3 2 3 5 5 8 5 7 4 5 6 6 6 6 5 4 3 3 2 3 4 4 4 5 6 6 6 6 5 5 4 5 4 4 5 6 7 6 5 4 5 6 6 7 5 5
3 3 3 4 2 6 3 3 9 7 7 6 8 9 7 6 6 6 7 6 6 5 5 4 5 4 5 5 5 6 6 7 7 6 6 6 5 4 7 6 6 5 4 5 5 6 6 6 5
6 9 8 5 5 5 2 5 8 7 5 4 5 6 6 7 7 8 8 8 7 7 6 6 6 5 5 5 5 5 6 4 4 5 5 6 5 6 7 7 6 5 5 5 5 4 5 5 6
4 6 7 6 3 2 5 6 8 3 1 2 3 4 6 8 8 8 7 7 8 8 8 8 7 6 5 5 5 5 5 5 5 5 4 4 4 5 7 7 6 5 5 5 5 3 4 4 5
4 5 5 6 5 4 5 4 5 5 4 3 3 6 8 7 7 6 5 7 8 8 7 7 7 7 6 5 5 5 5 6 6 5 5 5 5 6 7 6 6 5 5 4 3 3 3 4 4
1 3 4 3 3 4 3 7 6 6 5 6 8 7 8 7 8 7 6 6 6 6 7 7 7 6 5 6 5 5 5 5 6 5 6 6 5 6 7 7 6 6 5 4 3 3 4 5 5
1 3 4 2 1 1 2 9 6 4 5 6 7 7 6 7 7 6 6 6 6 7 7 8 7 7 6 6 6 6 5 5 6 6 6 6 6 5 5 5 5 6 5 5 5 5 5 6 6
Wind_Direction
339 9 88 59 52 48 15 299 247 278 55 35 62 85 100 106 147 212 89 134 133 141 157 167 169 166 162 158 155 153 149 143 140 138 134 132 130 127 123 123 119 114 110 105 99 93 82 75 79
4 340 54 58 78 61 298 283 264 249 147 129 86 83 83 81 88 114 128 143 139 146 153 160 166 163 158 156 156 155 151 146 144 140 136 135 133 129 126 124 120 114 106 101 98 93 83 80 88
311 31 74 68 91 160 253 255 207 114 136 97 74 59 82 131 138 152 158 143 139 144 146 161 161 159 157 158 157 154 151 146 143 139 137 136 133 130 128 125 121 114 104 95 91 90 84 85 89
57 42 51 70 75 228 240 262 164 128 141 74 94 74 55 101 153 151 137 140 138 141 145 160 157 157 158 158 156 153 150 147 142 138 138 136 132 131 131 129 123 114 104 95 90 89 86 86 93
58 72 62 55 318 299 288 274 162 148 153 110 112 116 55 28 119 132 138 142 143 144 148 159 157 156 158 158 156 153 151 147 141 139 139 138 135 133 135 132 123 114 106 99 96 96 89 91 109
54 69 90 127 311 317 308 293 153 130 128 124 127 132 139 116 131 144 144 143 148 149 150 156 161 159 161 160 157 155 154 151 145 142 141 141 139 137 135 130 119 109 104 103 101 97 86 101 120
106 102 130 153 308 320 305 303 152 146 150 169 147 127 173 171 161 147 140 137 144 147 146 150 157 161 164 164 161 159 158 155 151 146 144 143 141 138 136 130 119 106 105 106 100 91 86 105 115
126 103 107 150 157 276 291 304 183 156 166 135 129 147 198 196 158 131 120 129 139 145 147 148 147 145 149 159 166 163 162 160 157 153 149 147 145 145 141 130 122 112 108 102 92 87 89 96 99
101 79 159 196 186 236 276 349 21 128 117 131 167 184 201 150 140 128 125 140 158 166 160 154 150 144 142 150 171 165 166 167 161 158 158 142 114 114 124 132 130 116 107 96 85 85 92 94 91
95 133 218 213 195 209 236 191 96 96 106 124 121 122 131 142 154 164 176 182 186 186 180 167 158 150 148 161 145 138 144 151 137 125 123 108 107 116 123 151 138 120 103 89 82 84 87 82 67
140 197 241 255 212 221 225 170 111 126 177 199 195 175 149 158 173 187 197 193 191 186 187 177 168 156 156 147 135 133 127 128 129 129 120 118 108 90 88 74 80 82 82 71 73 73 71 73 68
221 251 251 276 246 236 219 167 132 177 218 216 195 165 162 175 189 198 202 199 179 172 190 183 176 165 164 154 149 146 145 145 146 143 136 130 126 115 101 91 85 81 83 83 74 78 84 86 74
242 279 273 262 263 254 214 202 208 241 243 221 154 157 178 189 200 208 206 194 179 182 189 190 183 177 170 163 165 163 168 164 157 150 148 146 147 151 133 107 95 97 97 95 88 88 100 99 87
264 284 293 284 265 229 197 230 212 255 230 156 161 180 194 199 203 204 205 202 194 191 191 190 188 187 180 177 176 173 173 166 160 164 162 158 156 160 154 148 127 116 108 102 98 107 112 108 100
320 343 333 307 281 255 158 261 241 250 142 184 196 202 205 213 209 210 213 211 199 189 187 191 194 190 186 184 185 180 176 170 175 176 170 166 165 173 170 169 172 160 130 111 100 101 103 109 105
27 29 330 301 315 292 147 246 265 284 176 218 218 220 219 223 222 224 220 215 197 182 186 194 199 190 189 187 182 177 176 178 182 177 171 175 175 174 176 184 189 168 146 129 125 121 108 113 118
29 29 300 313 348 38 161 250 276 324 222 235 223 222 225 228 229 229 220 214 201 190 188 193 199 189 188 184 175 176 172 180 178 173 172 178 179 177 180 195 194 167 157 149 148 128 123 127 125
359 337 321 307 321 337 265 263 280 298 244 236 224 213 218 216 223 243 241 226 210 197 192 193 194 187 178 170 160 163 172 177 171 174 178 176 178 181 184 192 190 171 165 159 147 133 115 127 132
24 317 297 282 282 277 258 263 273 286 257 236 220 206 205 208 288 9 358 339 176 183 188 190 184 179 166 165 171 174 188 183 177 180 173 174 178 182 187 192 180 178 181 169 149 130 125 122 125
138 302 299 295 288 265 266 269 271 273 248 233 218 199 185 181 173 38 30 35 144 185 187 183 181 172 174 178 166 155 155 171 174 169 167 175 179 185 192 186 186 185 170 156 158 143 136 143 158
190 216 251 271 297 306 294 295 293 290 286 276 216 178 178 181 182 185 183 192 186 197 191 185 175 167 166 154 131 113 109 103 143 167 170 182 182 184 186 182 182 187 178 178 176 165 151 155 179
222 227 237 255 265 277 298 287 283 282 299 273 194 169 182 187 181 192 205 211 216 216 194 177 165 160 156 154 162 167 174 185 193 172 164 170 181 183 184 178 182 189 193 190 185 172 160 154 162
224 236 231 248 242 264 275 250 283 301 274 252 211 200 199 196 192 205 213 217 219 203 182 173 163 162 159 163 169 171 171 169 151 150 156 161 168 174 176 175 177 184 193 197 188 172 167 162 163
221 69 65 53 87 262 240 202 278 252 236 243 205 210 208 201 203 214 217 208 210 193 179 169 173 177 168 169 170 173 168 161 159 165 163 160 159 162 168 168 172 184 190 192 193 182 175 176 169
174 121 3 338 1 253 249 203 252 259 250 223 198 207 207 201 199 204 204 203 204 200 196 186 186 192 181 178 180 180 176 173 177 175 174 166 166 167 169 165 170 178 188 192 186 180 184 182 182
204 168 175 207 225 275 282 233 258 275 281 217 191 193 196 205 208 209 206 200 200 201 198 194 197 200 189 189 190 183 178 177 184 183 178 180 179 169 163 161 162 166 172 190 185 182 187 186 197
179 202 184 150 172 257 282 287 301 306 22 125 159 185 211 219 221 220 207 196 198 200 202 200 198 200 196 193 186 185 184 183 185 183 179 176 164 160 159 157 152 155 163 178 174 174 182 184 204
159 148 107 136 166 234 276 278 255 256 237 224 219 226 234 236 240 239 216 201 200 201 200 197 199 202 198 189 186 187 188 187 180 173 177 172 168 164 161 157 153 151 155 166 170 165 180 194 209
84 93 94 109 141 163 249 270 237 243 243 234 236 235 238 241 242 240 226 207 195 187 188 195 199 198 195 191 187 186 188 185 180 183 186 177 175 172 170 165 160 153 155 162 171 200 205 216 224
87 115 120 132 268 177 211 267 272 265 265 253 258 259 252 249 248 237 221 201 189 187 189 195 196 196 197 187 183 188 186 180 185 192 191 183 182 181 175 164 159 158 163 175 183 201 213 219 229